ORBCOMM FM118

Last updated on Sat Aug 15 2026 00:03:10 GMT+0000 (Coordinated Universal Time)

1 41183U 15081E 26226.35007611 .00000240 00000+0 86829-4 0 9995 2 41183 47.0042 86.7618 0003309 299.7085 60.3472 14.58938460566228
UTC large
Height (km)
Speed (km/s)
/
Latitude / Longitude
Inclination (degrees)
Orbital Period (minutes)
Azimuth
Elevation
Range (km)
Doppler Factor

Next 0 passes for location: London (51.5072 / 0.1276)

No passes found over London.
ORBCOMM FM118